Theta_e
320 319 318 318 318 318 318 318 318 319 319 318 319 320 320 320 320 321 321 322 322 323 324 324 325 325 326 326 327 327 324 317 322 316 313 317 329 334 336 335 337 337 333 316 311 308 303 302 303 303 303 303 304 304 306 306 306 300 295 290 290 288 291 294 294 292 294 294 294 296 295 296 295 298 300 300 298 298 299 300 302 306 309 318 320 323 324 324
320 319 318 317 318 318 318 318 318 318 318 318 318 318 319 319 319 320 321 321 322 322 323 324 324 325 326 326 326 326 319 318 313 313 312 327 333 335 336 337 336 335 328 315 308 304 302 300 301 302 303 301 307 304 308 305 305 297 292 290 288 291 294 296 296 296 295 294 295 296 295 296 296 296 298 296 295 297 298 298 300 301 307 317 320 320 321 322
320 318 317 317 318 318 317 317 317 317 317 317 317 318 318 318 319 319 320 320 321 322 323 324 325 325 325 326 325 324 319 318 311 304 317 330 334 335 336 336 334 335 316 313 311 308 303 302 301 301 301 299 300 301 303 302 302 298 294 291 291 295 296 296 296 297 297 296 296 295 296 297 298 297 299 296 293 294 295 295 297 299 301 312 316 318 319 321
320 318 317 317 317 317 317 316 317 316 317 317 317 317 317 317 318 319 319 320 320 321 322 323 324 324 324 325 325 318 317 309 308 310 319 330 332 334 333 334 333 330 323 317 312 312 307 303 302 301 302 298 298 301 299 301 296 298 293 291 294 295 294 296 296 296 296 297 296 295 297 296 296 298 297 294 294 293 294 297 299 299 300 308 315 316 317 318
319 318 318 317 317 317 317 316 316 316 317 317 317 316 316 316 317 318 319 320 320 320 322 323 323 324 323 324 323 318 308 293 297 315 319 328 331 333 332 332 331 322 315 311 308 307 305 303 301 301 300 294 298 296 294 299 301 297 293 294 296 294 294 297 296 295 295 296 297 294 295 296 299 298 297 295 292 290 294 298 300 301 303 306 312 314 315 317
319 318 318 317 316 316 316 316 316 316 317 316 316 316 316 317 317 318 319 319 319 320 321 322 323 323 324 323 316 318 302 286 306 318 328 328 332 329 330 331 333 322 312 308 307 305 304 301 301 298 297 295 294 291 293 296 299 293 294 295 294 295 295 297 297 296 294 296 295 295 298 298 297 297 297 295 294 295 299 300 300 300 302 307 313 313 312 314
319 318 318 317 316 316 316 315 315 316 316 316 316 317 317 317 317 318 318 319 320 320 321 322 323 324 323 322 315 316 299 301 314 318 328 331 330 331 328 329 330 317 311 306 306 306 303 300 299 297 296 296 294 293 297 296 296 292 293 294 296 296 297 296 297 295 294 295 297 297 298 296 296 296 297 297 296 297 299 301 303 304 303 308 311 313 312 314
319 319 318 317 316 315 315 315 315 315 315 316 316 317 317 317 318 318 319 319 320 320 321 322 323 322 322 318 307 304 302 300 312 315 328 331 328 329 324 316 314 313 311 307 306 303 302 299 298 299 297 294 294 296 297 296 296 293 294 296 296 296 297 296 294 295 295 297 297 296 297 296 296 296 297 296 298 297 299 300 304 305 306 307 310 311 310 313
319 319 318 317 317 316 315 315 315 315 315 315 315 316 317 318 318 318 318 319 320 320 320 322 322 322 320 314 308 300 297 313 317 317 321 316 310 313 314 314 314 309 308 307 306 305 303 298 299 300 294 296 297 295 296 293 291 297 295 295 296 296 297 295 296 296 296 298 295 297 296 294 297 297 296 298 298 299 299 299 303 304 304 305 307 310 308 310
319 318 318 317 317 315 315 314 314 315 315 315 315 316 317 317 318 318 318 319 320 320 320 321 322 321 316 311 300 293 305 315 315 315 314 311 310 311 313 314 310 310 309 306 306 306 303 304 303 304 303 297 298 297 296 294 292 297 295 296 296 296 296 297 296 297 297 298 296 295 295 295 297 298 292 294 298 299 298 299 299 303 304 304 305 308 308 308
319 318 318 317 316 315 315 314 314 315 315 314 316 316 317 317 318 318 319 319 319 320 321 321 322 320 317 314 295 292 316 317 317 311 311 311 311 311 311 312 312 311 308 308 307 307 307 307 307 305 301 297 298 296 296 298 299 297 296 295 295 296 297 297 296 296 297 297 296 296 295 295 296 296 294 298 299 299 299 298 299 298 299 301 303 305 307 308
319 318 318 317 316 315 315 315 314 314 314 314 315 316 316 316 317 318 318 319 320 319 320 321 321 317 313 305 299 299 313 314 313 310 313 314 312 310 313 311 313 313 309 307 310 310 309 308 307 302 295 300 295 297 298 299 299 297 296 293 295 296 297 296 295 295 296 296 297 297 294 292 294 293 298 298 298 298 298 298 299 298 298 298 298 301 303 306
319 319 318 317 316 315 315 315 314 314 314 314 315 315 316 316 317 318 318 319 320 320 320 322 320 318 310 296 299 314 314 313 309 310 311 312 311 312 312 314 315 310 309 307 307 309 310 308 306 301 303 298 296 293 298 300 299 299 296 292 293 293 290 295 296 296 296 297 296 296 285 287 290 296 299 298 300 299 297 296 297 298 298 299 299 299 299 301
319 318 318 317 316 315 315 314 314 314 313 314 315 315 315 316 317 317 318 318 320 321 322 321 315 312 306 293 310 316 313 313 311 310 311 312 312 312 311 311 311 309 311 307 309 306 310 309 305 302 305 297 297 303 299 298 296 292 294 291 288 286 287 294 296 295 295 297 297 295 287 287 292 295 296 296 299 299 297 296 296 297 298 299 299 299 299 300
318 318 317 316 316 315 314 314 314 314 313 314 314 315 315 316 316 317 318 318 320 321 321 321 313 306 296 301 310 315 328 318 310 309 313 312 308 308 309 308 308 308 307 308 308 309 309 310 305 298 297 300 301 297 293 293 293 293 289 285 286 286 286 294 296 295 294 296 296 294 286 289 293 294 295 299 297 298 296 295 296 297 298 298 299 300 300 301
318 318 317 316 315 314 313 313 313 313 314 314 315 315 316 317 317 317 318 319 320 321 317 315 317 305 294 295 312 323 317 308 307 313 310 315 313 307 308 307 311 309 307 307 309 311 306 304 301 298 298 299 295 288 288 289 288 290 287 284 287 285 288 292 296 296 296 295 296 294 286 288 292 296 296 297 298 297 297 296 296 297 297 298 298 299 300 300
318 317 317 316 315 313 313 313 313 313 314 314 315 316 316 317 317 319 320 321 318 317 313 310 311 308 294 302 308 309 306 311 312 312 310 311 310 309 308 309 307 307 307 308 307 306 304 301 300 299 299 291 291 290 286 283 283 286 288 286 286 287 288 287 291 294 296 294 292 293 291 289 291 292 292 295 297 296 295 296 297 297 298 298 297 298 300 301
318 317 316 315 314 313 313 312 312 314 314 315 315 315 312 317 319 318 319 317 315 313 313 315 302 296 292 302 300 302 309 308 311 311 310 309 310 310 308 305 306 304 306 302 303 302 302 297 296 292 292 293 293 288 283 281 286 283 287 286 286 286 289 288 288 292 295 294 291 291 290 291 293 295 295 296 295 296 296 297 297 297 297 298 298 298 298 300
317 317 316 315 314 313 312 312 313 314 315 315 316 317 317 318 316 310 312 312 298 292 293 295 292 286 286 295 302 309 310 310 310 309 307 309 311 310 308 308 305 302 299 295 297 299 298 294 293 290 288 289 290 290 287 289 289 288 288 285 286 286 286 288 289 294 294 291 290 289 289 291 292 293 295 296 296 295 296 296 296 297 297 297 298 298 298 299
317 317 316 316 315 314 312 313 313 314 315 312 307 307 306 301 301 300 306 306 300 293 293 297 297 299 303 305 305 308 311 311 303 306 308 310 310 307 305 305 303 302 296 293 297 298 297 288 286 286 288 290 290 291 292 293 290 290 289 287 287 287 288 291 292 294 293 291 288 290 290 290 291 292 294 295 295 293 293 294 295 296 297 297 297 298 298 298
317 316 316 316 316 314 313 313 314 314 315 309 308 305 295 295 290 289 297 299 299 301 299 301 299 298 302 305 305 305 302 303 305 305 308 312 308 303 300 302 295 295 294 295 295 297 293 289 289 290 293 293 293 292 291 291 289 289 287 288 286 288 288 290 292 293 292 292 286 287 288 290 291 292 293 294 293 294 296 296 295 296 295 296 296 297 298 299
317 316 316 316 316 316 315 314 315 315 316 311 310 307 304 303 301 301 294 288 295 303 303 301 301 302 305 304 306 307 305 300 302 304 310 309 305 298 298 297 294 291 294 296 293 290 288 287 289 294 294 293 292 292 290 291 290 288 287 285 286 285 288 292 292 292 293 291 288 287 289 292 293 293 294 294 295 297 298 297 297 297 296 297 297 297 298 298
317 316 316 317 316 315 314 315 315 316 308 306 304 305 304 308 306 304 305 290 290 301 300 299 299 300 302 303 307 308 298 296 296 302 305 307 302 299 297 294 293 292 295 294 291 287 286 287 293 295 293 293 291 290 290 289 288 287 286 285 283 285 289 285 287 292 293 291 289 288 288 291 294 294 295 296 296 297 298 297 297 297 297 298 298 298 298 297
317 317 317 316 316 316 316 315 316 311 305 304 305 305 309 307 308 308 302 290 290 298 300 300 298 300 299 300 305 305 297 297 300 299 306 303 298 299 297 294 293 292 292 293 291 289 286 291 294 294 293 293 291 291 288 287 289 287 287 283 284 289 290 288 289 291 291 290 291 290 288 288 290 291 292 293 295 296 298 297 297 298 298 299 298 297 298 299
317 317 317 317 316 317 315 317 308 304 305 306 304 308 310 309 308 307 298 292 290 296 303 300 302 302 303 308 308 303 299 299 301 304 305 304 298 297 295 296 292 289 292 292 292 290 289 292 295 293 293 291 291 290 288 288 287 286 288 290 289 288 290 292 291 289 284 281 288 290 280 279 283 288 290 294 293 293 293 295 296 297 297 297 297 298 299 300
317 317 317 317 317 316 317 308 304 306 306 303 306 310 309 307 306 304 296 285 282 290 294 291 300 296 308 302 303 302 299 296 302 304 305 305 305 298 298 295 293 288 291 291 291 289 289 294 294 293 292 290 289 288 289 289 283 285 285 293 291 290 289 289 288 285 279 279 288 290 282 279 282 289 290 290 291 293 293 292 296 296 297 296 297 299 299 300
318 317 317 317 317 317 307 300 307 307 301 302 309 309 309 308 307 304 289 279 276 289 288 297 294 295 304 301 302 297 285 287 304 303 303 306 302 305 295 291 294 294 295 292 289 288 292 294 292 292 291 289 288 289 291 290 286 283 289 293 291 291 290 289 288 286 281 283 287 291 287 281 282 287 291 293 292 291 291 293 294 295 295 296 297 299 299 300
317 318 317 317 317 316 306 308 307 303 302 306 307 309 309 308 307 299 285 273 272 293 290 290 296 304 304 301 301 292 291 300 295 299 302 304 303 298 294 290 292 292 294 291 285 289 293 290 291 291 289 288 288 289 292 291 287 287 293 292 292 292 290 288 288 285 285 283 282 281 288 283 279 284 288 289 288 289 291 293 294 295 294 294 296 298 298 298
317 317 317 317 317 317 313 308 305 302 308 307 308 309 311 306 300 288 279 271 289 289 303 292 304 302 300 300 294 295 295 297 291 298 302 303 304 297 292 291 292 292 292 293 288 290 294 292 293 294 291 287 290 291 291 293 290 293 292 293 292 290 289 288 282 286 281 279 279 284 286 278 283 282 288 288 287 288 290 292 294 295 295 294 295 297 299 299
318 318 317 317 316 313 311 309 307 309 308 308 308 309 308 301 292 286 276 269 292 284 294 295 294 293 296 294 292 294 293 295 297 299 300 297 299 299 298 298 295 292 292 292 289 292 294 295 295 294 291 291 290 292 291 293 292 293 291 291 289 287 284 281 282 278 279 275 277 285 288 282 279 282 285 288 288 290 292 291 292 293 294 296 297 299 299 300
318 318 317 317 310 311 310 305 308 310 309 309 308 308 300 291 282 278 271 280 292 291 292 291 291 297 293 291 288 291 294 294 296 296 294 298 296 296 296 292 294 286 283 286 287 289 292 292 293 292 294 293 291 291 292 292 293 292 288 283 282 282 280 279 279 277 276 274 277 283 288 285 277 277 285 289 289 290 292 291 292 293 292 300 300 299 299 299
317 318 318 315 314 314 307 306 312 312 310 309 307 300 292 281 285 276 275 291 284 287 287 286 291 292 292 293 289 290 291 294 294 294 293 291 290 292 290 287 290 283 284 283 284 286 287 288 291 293 294 293 289 290 289 287 288 289 287 284 279 275 276 275 276 276 274 276 278 280 285 283 282 284 289 288 290 291 291 293 292 291 299 299 300 300 298 297
313 317 318 316 315 312 312 314 313 312 312 309 303 295 286 279 274 281 281 285 281 289 287 293 292 292 290 290 288 290 292 289 293 293 293 291 291 290 292 291 292 289 281 283 284 284 284 285 291 291 292 294 293 289 285 285 287 287 286 281 277 274 273 270 270 273 273 278 281 284 285 283 282 285 291 293 294 293 291 290 289 293 294 296 300 298 298 297
313 316 315 315 315 314 313 313 313 312 310 307 298 291 283 276 275 291 285 285 288 292 292 289 292 291 291 288 288 291 286 290 292 291 293 289 288 286 289 292 291 289 282 282 284 283 278 279 286 289 287 292 293 292 291 287 288 289 286 287 282 276 273 270 271 274 276 276 279 281 281 280 276 284 291 292 292 292 293 293 292 293 294 293 293 296 296 295
314 313 314 315 314 316 313 314 313 312 309 303 293 287 279 278 282 281 283 286 289 293 290 293 291 289 287 288 289 291 289 286 292 291 289 289 286 285 286 289 291 289 285 285 283 281 284 281 283 294 292 295 293 293 292 289 288 286 287 287 279 283 278 275 272 273 272 274 275 278 281 280 284 288 289 292 292 293 292 292 293 295 294 294 297 298 298 296
313 310 313 311 312 315 314 314 313 310 306 297 288 283 280 283 280 286 284 294 294 290 290 291 288 286 284 285 291 289 292 289 290 289 287 288 288 287 289 289 291 293 288 284 283 281 282 279 289 293 292 294 294 294 292 292 283 284 288 284 285 285 285 279 276 279 275 273 277 275 281 284 284 287 293 295 293 294 291 292 292 295 295 292 294 296 294 297
307 310 305 309 311 314 313 313 311 307 303 295 286 281 286 287 292 289 296 293 294 293 289 285 285 285 283 283 285 287 289 292 289 287 284 288 287 289 288 290 293 293 293 291 284 286 282 279 287 289 288 291 291 292 293 292 289 287 282 287 290 289 286 281 275 272 273 273 275 276 279 281 277 280 285 288 289 290 288 293 293 294 291 293 296 296 295 295
307 307 308 308 311 314 314 312 310 306 300 293 285 289 289 287 294 295 295 295 295 294 289 287 287 288 285 285 285 287 289 288 287 287 283 289 284 293 291 290 293 294 295 292 287 286 287 280 284 288 288 290 292 294 293 293 293 287 284 289 289 280 280 281 275 273 271 268 272 274 278 281 282 285 286 284 287 288 288 289 290 292 293 294 294 295 295 294
306 305 299 306 314 314 313 312 308 302 295 288 285 286 290 289 296 294 296 296 296 293 289 288 287 289 288 286 287 289 289 284 288 286 284 285 284 290 292 294 291 295 296 294 288 286 288 282 281 286 288 289 289 289 285 286 292 292 292 290 287 282 275 278 280 274 275 271 270 277 276 280 284 283 286 289 291 291 292 290 290 293 294 294 294 296 296 295
300 297 296 310 314 314 312 310 303 298 291 286 287 286 293 290 292 295 295 297 293 290 288 288 289 287 289 288 290 287 289 287 288 287 286 287 288 292 292 295 292 293 295 295 292 292 286 283 276 284 285 288 284 287 286 289 287 286 286 285 287 284 286 281 282 279 277 266 269 270 275 281 283 288 288 290 291 292 291 292 293 293 293 293 294 296 295 295
301 296 296 311 313 313 310 304 297 290 286 286 287 288 290 291 294 294 295 295 293 297 292 291 289 288 288 288 288 291 288 287 289 287 287 287 288 283 293 294 295 292 293 293 292 290 284 283 279 282 283 283 285 289 291 291 294 291 290 287 289 284 281 277 277 281 275 277 273 270 276 284 285 290 292 291 292 292 291 293 293 293 294 294 294 294 294 295
295 287 294 311 313 311 303 293 293 293 287 286 286 288 288 296 293 293 295 294 293 290 295 293 292 292 289 290 289 289 288 287 288 288 287 287 290 289 291 297 296 296 294 288 290 293 290 282 281 280 284 287 287 289 291 291 292 290 289 288 291 288 286 279 276 275 279 277 274 276 274 283 289 290 289 290 290 291 291 292 294 293 292 292 294 294 294 295
293 291 305 310 312 309 300 292 293 288 285 290 295 292 296 294 293 295 294 295 292 294 292 289 293 293 292 290 289 289 291 286 289 288 289 289 291 293 294 296 297 296 296 289 293 293 294 282 280 281 285 286 289 289 289 291 292 290 289 286 287 286 285 283 280 280 282 278 279 278 275 283 289 292 291 293 292 290 290 291 293 294 294 294 293 296 298 298
292 292 298 309 311 308 296 287 286 287 288 293 293 292 296 295 294 294 294 296 293 293 291 292 292 296 293 293 293 289 292 285 289 290 287 289 287 293 296 295 297 294 295 291 291 293 285 283 284 277 274 278 282 284 285 286 288 284 283 286 288 288 288 282 279 278 280 280 283 280 276 283 290 289 287 289 291 294 293 295 292 295 293 294 296 297 297 297
290 293 294 301 307 304 292 293 291 289 289 288 289 288 291 292 295 296 295 294 297 295 294 291 294 295 291 293 292 292 293 290 286 291 291 288 290 293 292 294 297 295 296 295 297 296 289 285 284 277 277 275 273 277 279 281 285 284 282 288 291 289 287 285 283 280 280 281 280 278 281 287 292 289 292 291 290 293 291 290 291 292 294 296 298 298 296 296
287 279 289 292 298 299 298 297 295 292 289 289 287 289 291 288 292 295 297 296 298 297 296 295 294 296 292 291 289 289 292 293 289 285 287 287 288 288 291 289 296 296 295 296 295 295 284 285 287 286 283 281 283 283 284 287 283 283 285 287 288 289 289 289 285 282 282 285 281 283 286 288 288 289 291 291 290 291 292 292 292 293 292 291 292 293 294 295
291 282 285 282 292 292 292 295 293 293 289 293 286 290 288 289 291 291 297 292 297 296 295 295 294 292 291 291 289 290 291 290 289 287 286 287 286 287 291 291 291 292 294 294 294 291 286 286 287 287 287 287 288 285 287 290 287 288 287 286 288 288 287 287 285 283 288 283 280 286 287 285 288 289 289 289 287 288 289 290 291 291 292 293 294 293 294 293
284 288 288 290 285 282 285 287 293 292 292 293 289 292 289 288 290 288 293 295 296 298 292 293 294 294 294 292 292 286 288 288 286 284 286 285 285 285 288 289 289 291 291 291 291 291 287 286 288 287 286 287 286 287 288 289 289 289 289 288 286 288 287 286 286 289 288 284 282 287 286 285 289 290 291 292 291 293 293 294 294 293 292 292 294 296 295 294
288 287 286 291 283 286 287 287 293 293 292 292 289 291 288 289 288 291 291 291 293 293 295 287 290 293 293 294 292 288 288 285 285 288 287 286 284 283 284 288 290 289 290 289 290 288 289 286 287 288 287 287 286 286 287 287 286 286 287 288 288 288 288 288 289 290 289 286 288 289 288 288 291 290 290 292 292 292 292 292 292 293 294 296 294 294 295 296
284 284 281 287 288 287 289 288 289 290 287 292 287 289 290 289 288 291 292 291 287 291 296 291 291 293 293 293 293 289 290 291 291 286 288 288 287 285 283 286 287 289 288 288 290 290 290 286 290 286 286 286 287 285 286 285 285 284 283 284 286 287 289 289 290 290 290 288 289 289 288 288 293 292 292 292 294 294 294 294 295 297 297 295 294 294 295 296
290 290 291 285 282 282 287 288 288 287 286 288 287 289 290 290 289 292 292 295 292 290 293 291 293 292 293 293 293 292 295 294 294 294 292 290 288 291 289 287 291 287 288 288 288 288 289 285 284 284 284 284 286 284 283 284 285 283 284 286 286 285 284 286 286 289 288 287 288 288 286 288 293 293 293 293 293 293 295 296 296 297 296 294 293 295 296 296
291 292 292 289 282 288 282 286 288 288 284 288 289 289 289 290 291 292 288 294 295 295 295 295 294 293 290 291 291 293 297 297 296 297 298 297 298 296 297 295 295 291 287 288 289 287 286 286 284 283 283 284 287 284 283 283 284 284 285 287 289 289 287 286 289 290 290 291 286 285 287 293 295 293 291 294 294 294 294 296 297 296 294 294 295 296 297 296
Wind_Speed
12 12 9 8 8 7 6 5 4 3 2 1 1 2 2 3 4 4 4 5 5 6 6 7 7 7 7 8 9 9 8 2 1 1 0 1 1 0 2 3 3 3 3 1 2 2 2 3 2 1 1 1 1 1 1 1 0 2 1 3 1 3 2 1 1 2 3 7 5 4 4 6 3 0 0 2 4 2 1 4 1 7 7 3 4 7 11 10
12 11 9 9 8 7 5 5 4 3 2 1 1 1 3 3 3 4 4 5 6 6 6 6 7 7 7 8 8 8 4 1 0 0 4 0 2 2 2 3 2 3 2 1 1 1 1 3 3 1 2 0 1 1 1 0 1 2 1 3 2 1 1 1 1 3 5 3 7 6 4 6 5 7 2 3 1 2 1 1 3 5 4 6 6 7 10 9
13 12 9 9 9 8 5 5 4 3 2 1 0 1 2 3 3 3 5 5 5 6 6 7 7 7 7 7 8 7 2 2 1 3 1 1 2 3 3 3 1 1 1 0 0 1 1 3 4 2 0 1 1 1 2 0 1 1 2 1 1 2 1 3 3 2 1 9 6 4 3 2 2 4 1 2 4 3 5 4 0 4 4 6 6 6 8 8
13 12 11 10 9 8 6 5 4 3 2 1 0 2 2 3 3 3 4 5 5 6 7 7 7 7 7 8 8 3 1 3 1 1 1 1 2 2 3 2 1 1 0 1 2 1 2 3 0 2 0 1 1 2 1 1 2 1 4 2 1 2 2 3 2 2 1 7 6 5 1 4 2 4 3 4 3 3 5 6 9 11 9 11 10 9 8 9
14 13 12 10 9 7 6 5 4 3 2 1 1 1 2 2 3 3 4 4 5 5 6 7 7 7 7 7 8 0 1 2 1 0 0 2 2 3 3 2 1 1 0 2 4 3 2 2 2 1 1 1 1 1 1 1 1 2 1 1 2 0 3 2 1 4 3 4 8 3 5 3 1 3 2 6 4 4 7 8 10 11 11 14 12 11 8 9
14 13 12 10 8 7 6 5 4 4 2 2 2 2 2 2 2 2 3 4 4 5 6 7 7 8 8 7 1 1 1 3 1 0 3 4 4 3 3 2 1 1 1 1 1 3 1 3 1 0 0 2 3 3 2 2 0 1 0 1 3 0 4 1 1 4 3 2 4 3 0 1 2 2 2 5 5 2 3 4 7 7 10 16 13 12 10 9
14 13 12 11 9 8 6 5 4 4 3 2 3 3 2 2 2 3 3 3 4 4 5 6 7 8 10 4 1 1 2 1 1 3 4 4 5 4 2 2 2 1 1 1 1 0 1 1 1 1 1 0 1 2 2 1 2 5 1 1 2 4 3 2 1 3 4 8 2 1 1 2 1 2 0 2 5 6 5 4 6 4 6 12 13 13 15 15
14 13 12 11 10 7 7 5 4 4 4 3 3 4 3 2 3 3 4 4 4 4 5 6 6 7 8 1 1 1 1 2 1 4 6 4 3 5 2 1 0 1 1 2 1 1 0 1 3 1 0 2 3 5 0 4 2 2 1 0 2 3 1 0 1 1 2 2 0 4 1 1 3 2 0 4 8 6 5 3 6 8 11 9 11 13 11 11
14 12 11 11 10 8 7 5 4 4 5 3 3 4 3 3 3 3 4 5 5 4 4 5 6 7 1 0 2 3 2 1 3 2 5 1 3 3 2 0 2 1 0 1 3 2 2 2 1 1 2 0 1 5 1 4 1 0 3 3 1 1 2 1 1 1 1 0 2 1 1 2 1 4 3 9 8 7 4 5 7 8 9 10 11 13 12 11
14 13 12 11 10 9 9 7 4 6 5 3 4 3 4 2 4 4 5 5 5 3 3 4 6 5 2 1 2 2 1 2 4 2 2 2 3 1 3 0 2 1 0 1 5 4 1 1 1 3 2 1 1 2 1 4 1 1 4 4 6 4 3 1 3 1 0 1 0 1 1 1 2 2 6 3 9 4 5 5 5 9 9 9 8 10 10 12
15 14 13 11 10 11 10 8 6 7 6 4 5 3 3 4 5 4 5 5 5 3 3 4 4 4 1 0 4 5 1 2 1 3 2 1 4 6 0 2 0 1 2 2 4 1 2 2 1 1 2 1 2 1 2 1 1 4 5 4 4 2 1 1 1 2 1 1 1 2 2 1 2 1 7 6 4 4 8 6 6 6 7 8 9 9 9 10
15 14 14 13 12 11 10 8 7 6 7 5 5 4 4 5 5 5 5 5 3 3 3 3 5 1 0 3 4 2 1 2 3 3 3 1 2 5 5 4 0 1 1 2 0 0 1 0 1 1 2 0 1 1 1 1 2 2 4 2 1 1 1 2 4 3 1 1 0 1 2 4 0 4 12 5 2 3 7 7 7 7 7 7 7 7 6 10
15 15 14 14 13 12 11 9 7 8 7 6 6 5 5 5 6 5 5 5 4 4 3 3 4 0 1 1 2 3 3 3 3 4 2 1 1 1 2 1 1 1 3 5 3 1 1 1 2 5 1 3 2 1 2 2 0 2 2 3 2 1 3 7 1 1 2 1 1 1 2 7 7 11 12 2 4 2 5 6 6 6 6 6 6 7 8 7
13 14 14 13 13 12 10 8 8 9 8 8 7 6 6 6 6 6 5 6 6 3 3 3 2 0 1 1 2 3 3 3 4 2 1 2 1 1 2 3 2 2 2 5 2 2 0 1 3 4 1 3 1 0 3 1 2 2 1 3 2 2 3 3 2 3 3 1 0 1 2 8 8 10 8 6 7 7 6 6 6 5 5 5 6 7 8 9
13 12 13 13 13 11 10 9 10 9 9 8 7 7 6 7 7 7 7 6 5 1 3 3 0 1 1 0 2 2 3 0 2 1 0 1 3 2 1 3 4 3 2 4 1 0 1 1 2 2 1 1 3 3 2 1 1 0 3 2 2 3 3 2 1 5 4 1 1 4 1 8 9 10 5 2 5 6 6 5 5 5 5 6 6 8 9 10
14 13 13 13 12 11 9 9 10 9 9 8 7 5 6 7 7 8 8 6 7 5 0 1 0 1 3 0 0 4 1 1 2 1 0 1 1 3 3 2 0 2 2 1 1 1 2 5 4 2 2 2 3 5 3 2 2 2 4 2 1 1 2 2 1 1 6 2 1 4 5 4 3 2 2 4 3 5 6 6 6 7 8 8 7 8 8 7
15 14 12 12 12 11 10 10 10 10 9 7 5 6 7 9 9 8 7 6 3 1 2 1 1 0 2 1 2 1 2 2 3 1 2 1 1 4 4 1 1 0 3 2 5 3 3 3 1 1 2 3 2 5 5 1 2 3 0 3 3 3 1 2 3 1 1 3 3 1 2 6 6 7 6 4 1 3 5 7 8 8 8 8 8 8 8 8
15 13 12 12 12 11 11 11 11 11 9 7 6 3 4 6 7 6 4 2 2 1 1 2 1 1 3 1 2 5 2 3 1 3 1 1 1 2 2 1 0 2 2 2 3 2 1 1 2 3 1 1 1 2 6 4 6 4 2 1 4 1 5 4 2 2 4 0 2 0 4 10 12 10 9 9 5 6 8 9 10 10 9 9 8 8 7 8
14 13 12 12 11 11 11 11 12 11 9 8 7 6 7 8 4 2 1 0 2 3 0 3 4 5 3 9 3 4 3 3 2 2 2 0 0 1 1 1 4 3 1 2 2 2 1 3 5 4 2 2 4 6 7 2 5 2 7 4 2 1 2 0 4 1 4 2 4 4 7 8 10 11 11 11 10 7 10 9 8 9 8 9 9 9 7 8
14 14 13 13 12 12 12 12 11 12 10 5 2 1 1 2 2 1 1 0 2 3 2 6 4 2 3 5 5 1 1 2 5 2 1 1 0 1 1 1 2 3 3 2 1 0 1 3 4 5 7 7 5 7 7 5 6 4 4 3 1 1 2 2 0 0 0 0 5 8 8 7 9 9 11 11 9 7 7 8 10 10 10 10 9 9 9 9
13 13 13 12 13 12 13 12 12 11 10 2 1 2 3 6 8 2 1 4 3 3 3 2 2 3 1 4 3 6 7 1 1 0 0 1 1 5 1 2 2 0 0 3 5 1 5 3 3 7 7 7 7 6 4 3 3 4 4 1 2 1 1 2 3 0 2 1 3 1 4 10 10 10 11 10 7 13 12 11 11 12 9 8 9 10 10 11
12 12 12 11 12 13 12 11 11 8 4 2 2 3 0 1 1 1 5 1 4 2 4 2 1 3 2 3 3 2 3 3 2 1 1 1 1 5 2 3 3 6 1 3 3 3 2 4 7 8 6 3 2 4 4 3 3 3 3 2 1 3 1 1 1 1 0 1 8 3 5 14 11 8 10 9 13 13 12 10 11 9 9 10 10 10 9 7
11 12 11 10 10 11 11 11 9 8 2 2 3 1 1 1 1 2 1 4 3 0 2 1 3 2 1 4 2 1 3 3 5 3 3 1 2 2 5 3 4 2 1 4 7 3 2 5 11 6 3 4 3 5 5 4 4 4 2 1 3 3 1 3 2 1 1 2 4 3 6 14 14 8 12 15 12 13 11 8 10 8 11 13 13 10 8 9
12 11 11 11 12 11 12 10 8 2 2 3 1 2 2 2 2 2 1 3 3 3 1 2 3 3 4 4 3 3 5 2 5 6 3 4 7 3 4 4 6 3 6 5 7 8 7 3 2 3 3 5 4 2 4 3 1 1 3 2 1 1 1 3 1 2 2 2 2 5 6 9 7 7 7 5 5 10 14 9 11 12 10 10 6 5 7 10
11 11 12 11 11 12 10 10 4 4 3 1 2 3 4 3 2 2 2 1 2 0 1 2 2 2 3 2 1 4 2 1 0 2 4 6 5 3 3 3 3 4 5 6 5 3 5 4 1 5 2 3 4 1 2 5 0 1 3 6 5 3 2 1 2 3 7 4 1 1 6 5 5 5 8 10 3 3 4 5 12 13 9 7 8 11 8 8
10 11 11 12 12 12 11 5 3 2 4 3 2 1 4 3 2 2 2 2 2 2 3 7 2 5 4 1 1 2 2 1 1 2 5 4 1 3 1 2 3 5 5 4 6 3 6 1 2 5 4 3 4 2 2 4 4 1 4 1 4 4 4 3 3 4 2 1 1 1 1 10 5 8 8 7 5 7 6 4 11 8 8 6 8 9 9 8
12 10 12 12 13 13 6 4 3 4 4 2 1 2 2 3 1 1 4 4 4 4 7 1 2 2 1 4 5 3 6 5 0 4 3 2 3 1 5 4 1 1 2 2 2 4 2 2 5 4 4 4 4 2 2 7 7 2 1 0 5 4 2 2 4 3 4 2 4 1 6 5 8 9 11 16 13 10 8 11 11 10 7 7 7 8 8 8
13 12 12 14 15 15 2 0 6 4 2 1 2 1 2 3 1 1 3 3 4 4 3 2 2 2 1 3 6 5 2 9 3 2 0 2 1 2 2 5 7 7 2 5 8 3 2 3 3 3 2 3 6 4 3 6 5 3 1 5 5 7 4 4 3 1 1 3 8 3 0 3 6 9 4 5 6 8 11 13 13 11 8 8 8 9 8 6
13 13 14 14 13 17 2 2 3 3 2 3 2 2 2 2 2 6 5 3 1 2 1 6 4 2 2 4 2 2 2 3 3 1 2 2 3 2 2 4 4 5 1 6 8 2 2 4 6 7 6 5 3 1 1 8 4 2 2 5 5 6 5 3 2 2 4 2 8 3 4 2 12 5 4 1 2 8 9 12 11 9 9 7 7 6 4 3
15 14 15 14 9 5 6 1 0 1 3 2 3 1 2 1 3 3 3 6 2 3 0 1 3 7 4 10 1 1 4 1 2 1 1 3 1 3 1 1 2 2 3 6 5 3 1 1 4 4 4 4 5 1 1 1 3 5 6 8 6 7 4 3 5 3 4 4 5 7 9 3 8 3 6 7 7 8 10 4 4 6 5 5 3 4 5 5
15 16 16 13 6 4 1 1 3 3 3 2 3 3 2 4 4 4 5 6 3 1 2 2 2 5 12 15 9 1 5 2 1 5 3 1 1 3 1 2 4 6 4 2 2 4 2 2 1 1 2 4 3 5 6 2 4 5 2 3 5 3 5 3 3 5 1 8 4 5 8 5 6 4 5 5 4 4 7 5 5 6 3 2 3 4 4 5
14 17 18 12 4 2 4 3 3 3 3 3 4 5 5 3 2 6 5 2 1 5 6 5 1 5 13 6 6 7 8 2 3 5 10 6 6 7 6 8 5 3 3 5 6 2 1 1 1 2 2 8 4 8 4 5 3 5 7 7 4 2 3 2 2 2 5 7 1 2 2 2 16 4 5 6 8 3 6 6 6 3 2 3 3 5 5 4
6 13 20 12 4 4 2 2 4 4 4 3 3 3 4 5 8 7 4 5 2 5 4 6 8 8 7 6 5 3 2 8 3 2 5 2 8 7 3 6 9 8 8 4 4 2 5 2 1 1 4 3 7 10 2 1 1 5 8 7 5 1 1 4 5 1 4 6 5 1 1 7 2 4 9 8 7 6 3 5 4 4 4 6 6 5 4 4
3 5 11 8 8 5 0 1 1 4 5 2 5 4 3 5 5 7 5 2 1 1 5 3 6 5 11 10 7 8 3 2 7 4 5 5 5 6 6 7 3 1 6 2 9 8 2 4 7 5 3 3 4 8 13 9 9 8 3 10 8 7 5 5 3 5 8 7 2 4 2 7 2 4 2 4 8 6 5 5 5 5 4 2 4 4 5 5
3 4 1 5 4 2 3 2 2 1 4 3 6 6 9 9 5 9 9 3 0 2 3 5 10 10 6 1 1 6 5 2 5 6 4 9 8 5 9 9 5 3 3 7 3 2 11 5 5 12 0 9 11 3 6 6 2 1 3 6 5 11 6 3 6 4 2 1 2 2 6 4 5 4 5 3 6 7 8 6 5 7 4 2 2 4 5 4
3 1 0 2 3 4 5 3 3 5 5 6 7 7 11 10 6 4 4 4 1 5 5 7 4 4 4 3 0 9 2 4 5 4 2 5 3 9 5 5 11 14 8 9 4 2 2 4 2 3 3 13 9 5 4 6 6 4 5 7 9 5 6 1 2 0 2 4 10 2 8 8 7 8 11 11 7 10 2 4 4 7 8 3 5 7 3 5
1 3 1 2 2 4 6 6 5 4 5 4 8 11 11 3 1 2 1 7 5 12 6 9 4 6 6 6 4 6 3 5 4 5 5 2 4 5 5 6 5 9 12 11 3 3 9 4 2 3 4 3 0 0 1 2 4 7 5 7 2 2 4 4 6 2 0 5 8 3 11 8 2 14 2 2 7 9 7 9 8 8 5 4 9 7 5 4
1 2 1 3 3 6 7 8 9 4 4 6 11 9 3 4 1 3 2 1 4 5 5 6 2 8 5 8 5 8 3 8 7 5 4 7 5 7 8 2 7 13 15 3 6 3 6 2 1 0 1 5 3 2 2 1 0 6 6 3 7 4 3 2 4 4 2 3 6 4 4 9 10 13 0 3 2 4 5 7 6 9 9 8 7 8 7 2
0 0 1 4 8 9 7 8 7 7 4 7 10 11 2 4 2 3 1 1 0 3 8 4 5 4 5 7 3 2 6 7 8 8 7 3 5 5 15 10 5 12 13 10 6 2 1 5 2 2 2 1 1 3 9 6 2 0 2 2 1 4 2 5 7 4 5 6 1 13 3 14 5 6 7 12 11 13 13 9 8 13 11 7 6 7 7 4
0 2 3 0 8 9 10 8 5 4 4 8 9 6 3 1 0 2 7 4 2 1 2 5 1 6 5 6 9 8 6 5 11 7 5 3 8 2 7 9 6 8 14 14 7 3 2 3 7 1 3 2 3 5 11 11 10 3 2 3 1 0 2 4 0 5 6 4 5 4 10 10 3 8 9 10 12 13 11 12 10 10 7 7 6 6 6 6
1 1 1 2 9 9 10 7 4 4 4 1 3 1 2 1 4 1 4 6 2 1 1 1 3 8 5 4 3 4 4 6 7 7 5 4 8 4 7 9 6 5 5 6 8 4 3 1 7 2 1 4 9 5 7 13 17 14 14 12 13 9 4 5 9 1 2 3 4 2 13 14 6 5 9 9 10 10 8 10 9 7 8 8 6 6 6 5
1 3 2 7 10 13 9 6 2 3 4 5 6 5 2 3 2 3 2 1 4 1 2 1 2 1 5 7 7 7 6 5 6 6 4 9 8 7 2 10 9 11 12 9 13 10 8 4 8 7 10 11 5 2 1 4 3 1 2 8 7 8 6 6 8 5 1 4 3 4 0 18 8 5 5 6 6 7 7 6 8 6 3 5 6 6 5 6
1 3 2 9 12 12 8 5 3 4 3 2 5 2 1 1 3 0 1 1 1 2 0 1 1 0 2 1 4 5 11 5 11 8 6 9 9 12 4 11 10 11 12 4 6 1 5 3 2 2 1 1 1 2 3 1 3 4 5 2 4 7 5 6 5 7 8 3 5 4 3 15 1 0 2 1 0 1 2 6 5 4 4 5 5 4 4 3
0 2 2 0 7 8 8 8 8 7 3 2 4 3 3 1 2 2 4 3 3 2 2 0 2 2 1 1 1 4 7 5 7 10 6 4 5 5 2 5 11 6 10 7 10 8 5 4 8 2 1 1 3 3 3 3 1 3 3 3 4 3 3 3 3 2 3 8 10 8 11 16 1 6 2 3 2 2 3 1 2 1 4 4 2 1 1 1
0 1 1 0 4 8 7 2 4 6 7 7 7 7 7 3 5 9 4 3 2 3 1 2 1 1 1 1 1 0 1 2 1 10 7 5 6 1 6 3 11 8 8 6 7 9 7 6 9 7 11 11 7 8 10 7 7 3 3 9 12 13 11 6 7 4 7 7 9 7 11 14 1 3 2 2 2 2 4 4 3 1 3 5 5 3 3 2
2 1 2 2 1 3 6 2 0 3 8 8 7 6 7 5 2 6 6 4 4 3 3 1 3 1 1 2 3 2 1 0 2 1 4 4 3 1 2 5 5 7 5 8 7 8 3 4 9 13 14 15 14 7 2 8 4 7 8 11 8 9 12 11 5 7 14 14 9 10 16 20 9 4 1 3 1 2 3 4 4 4 4 3 2 4 5 4
1 1 3 3 2 4 2 3 5 3 4 9 5 6 10 8 3 1 8 4 6 8 2 5 3 3 3 4 4 4 2 3 0 1 1 2 1 1 3 3 3 7 3 4 5 6 2 5 10 12 15 15 11 5 9 16 15 16 16 12 13 12 12 15 13 17 16 7 14 14 14 11 23 10 7 6 4 3 4 4 5 4 4 4 4 4 6 5
2 3 2 3 4 5 7 6 8 7 2 6 4 5 8 10 6 4 4 6 1 7 5 1 6 10 10 10 6 4 2 3 1 2 1 0 0 3 2 3 3 6 3 1 1 5 6 8 8 8 11 14 6 3 9 11 14 14 16 15 15 15 14 17 19 22 14 12 18 16 9 16 24 12 10 14 7 8 8 8 7 4 3 4 7 9 8 6
1 2 2 2 1 1 2 2 8 7 9 7 2 4 5 10 13 10 6 5 3 3 11 6 11 14 13 9 7 7 5 2 5 4 2 0 1 0 1 1 1 6 3 1 2 1 3 5 6 5 10 11 8 6 3 11 4 4 8 14 15 18 20 22 22 22 19 13 14 18 17 20 19 8 11 11 8 6 3 3 2 2 5 7 6 7 8 9
4 2 3 1 1 0 2 2 6 7 7 8 6 7 5 8 11 7 4 6 5 7 7 13 12 11 13 12 10 9 11 11 7 4 3 3 1 0 1 1 0 2 3 1 0 2 3 4 4 2 5 9 10 5 3 4 2 2 3 3 8 12 17 21 20 18 15 14 14 17 17 18 16 3 3 7 5 1 2 5 8 11 10 6 6 8 9 10
1 1 1 1 1 2 2 0 1 7 7 7 9 7 7 9 9 8 6 8 10 6 9 16 15 7 8 11 11 13 13 12 13 13 10 10 7 4 2 2 2 1 2 1 2 2 1 3 3 2 5 8 6 6 3 2 1 1 5 9 11 11 14 11 11 10 11 17 18 14 15 18 15 4 5 5 3 4 10 11 10 9 7 4 5 10 10 8
2 3 1 2 1 2 3 3 2 3 8 9 10 10 7 8 4 5 2 4 9 11 12 16 12 8 5 11 16 20 18 14 13 14 10 8 6 3 5 4 2 1 0 1 1 1 1 2 2 2 7 11 8 8 5 4 1 6 13 19 19 9 4 4 9 12 16 12 9 11 18 17 15 3 2 9 9 7 9 12 12 8 5 6 8 11 12 6
Wind_Direction
152 160 179 183 178 180 195 202 189 180 172 156 148 92 73 58 36 29 24 17 8 11 5 1 4 359 353 354 351 348 344 88 42 64 81 251 39 70 250 285 298 307 342 29 13 33 335 343 332 287 17 52 272 78 250 40 130 60 81 118 343 202 53 257 223 191 174 131 198 175 182 115 133 6 192 75 40 85 73 105 45 34 39 57 90 110 129 145
154 157 172 187 177 175 191 213 203 200 180 188 90 76 57 42 30 18 19 7 6 6 7 1 358 358 354 350 350 345 16 70 43 329 230 64 267 240 234 250 276 338 309 42 93 50 18 312 280 153 83 320 319 107 35 274 77 109 153 89 203 194 298 321 266 124 110 180 171 196 170 137 202 141 215 115 230 130 102 143 79 65 37 62 90 122 137 149
161 156 171 184 182 172 185 215 216 214 205 162 66 0 35 28 17 10 8 5 360 1 1 360 360 356 357 345 337 347 352 59 50 259 208 257 191 234 229 235 274 22 64 126 230 141 190 252 262 134 72 105 336 182 45 258 77 221 110 102 240 186 159 27 5 11 277 148 155 181 202 175 198 128 159 169 180 149 167 164 31 149 177 167 155 147 154 162
162 153 167 184 180 170 183 204 216 217 216 179 18 5 14 12 358 3 358 359 358 354 355 357 355 358 352 339 336 336 72 72 243 248 260 196 239 243 234 258 237 11 46 201 215 259 266 304 241 125 7 109 259 76 95 267 87 267 75 168 199 205 124 317 348 328 352 143 156 156 113 111 193 160 144 171 99 239 239 204 170 201 182 182 175 166 167 169
161 157 165 179 181 176 177 202 215 225 214 220 322 332 357 336 351 342 352 353 354 352 350 351 355 353 346 338 336 1 85 59 264 229 228 240 218 253 244 252 303 30 122 290 348 282 289 289 5 44 104 266 22 49 246 243 158 86 183 186 194 54 61 269 304 357 15 124 108 114 113 186 119 95 137 139 164 217 210 222 208 196 175 163 173 183 173 178
162 161 166 167 179 183 181 206 227 234 237 254 304 326 313 309 333 342 340 346 349 348 348 353 353 350 338 327 14 66 93 149 228 263 221 236 223 227 251 271 280 78 54 14 165 308 12 329 76 46 343 96 197 135 264 158 140 114 334 29 18 151 134 254 2 332 51 74 91 95 184 81 122 173 236 154 181 229 219 175 193 210 174 178 163 154 175 183
163 162 164 166 171 189 190 205 223 236 241 274 294 316 290 319 317 346 341 340 347 351 350 352 353 347 332 321 201 104 140 230 41 249 212 234 231 221 252 308 44 40 80 26 334 108 161 266 90 227 109 123 265 129 198 124 58 105 180 113 24 78 100 209 135 7 61 87 99 199 58 122 142 148 307 229 236 204 201 194 147 150 132 131 148 174 177 187
163 164 163 163 167 184 194 200 225 240 251 262 305 289 322 316 345 346 356 352 355 355 357 353 351 349 347 115 72 39 70 250 247 219 214 231 253 233 148 352 90 43 53 206 209 281 138 186 224 185 145 179 213 136 214 86 40 105 62 167 166 69 174 169 108 69 60 78 129 67 104 241 157 175 91 250 239 233 219 147 109 115 129 149 157 177 188 191
165 163 161 163 168 171 177 204 223 238 245 254 284 285 300 338 351 349 348 349 348 351 356 354 352 347 327 125 124 94 247 223 215 197 179 268 301 88 63 32 123 116 235 256 200 203 130 276 250 173 247 175 110 93 6 111 329 131 185 136 120 115 145 164 72 40 106 75 59 80 295 291 210 169 226 229 242 221 171 123 132 129 138 161 176 182 185 193
164 162 163 164 167 165 163 176 217 243 232 253 270 272 287 333 334 344 337 341 336 345 344 353 357 341 29 88 55 163 258 250 298 265 163 208 311 107 71 205 107 119 27 295 61 53 98 210 161 264 161 94 91 79 150 83 203 174 124 130 134 175 125 226 122 219 235 123 108 126 287 310 311 111 283 281 241 202 144 155 161 144 165 180 184 191 195 190
164 164 162 163 163 163 162 174 185 232 238 243 259 264 282 312 320 326 336 336 335 325 6 360 358 9 101 94 117 210 182 37 270 339 250 224 57 92 61 305 24 74 97 16 92 151 161 204 222 211 48 233 76 334 84 197 164 105 125 80 97 156 153 198 90 212 85 321 142 119 263 250 310 81 235 231 264 166 174 176 178 170 180 189 195 194 200 202
166 166 164 162 161 165 169 172 194 208 231 244 245 251 273 296 312 318 332 335 324 9 346 355 360 35 73 79 147 202 192 245 294 308 306 113 124 170 202 203 134 157 128 131 278 250 143 188 44 58 194 85 71 99 49 142 87 134 101 89 256 56 119 245 165 221 109 259 163 172 24 321 141 227 238 241 254 135 169 185 187 194 200 204 204 203 201 211
169 166 170 166 166 172 173 181 188 209 221 240 237 246 271 287 291 308 318 328 326 327 334 4 354 156 95 112 247 263 279 320 314 332 337 106 113 181 185 189 191 135 169 134 175 223 205 147 94 82 213 100 163 111 213 84 311 73 54 126 46 9 319 251 255 114 115 272 169 151 296 269 258 246 271 232 189 127 149 186 200 206 209 212 209 212 219 224
166 168 169 169 167 170 178 181 196 206 215 229 229 241 266 278 284 297 312 301 304 311 4 329 34 106 102 240 300 256 299 14 345 355 285 312 63 19 26 15 50 71 57 107 177 190 77 133 111 126 101 92 139 278 86 6 42 129 246 63 145 76 258 295 170 187 134 311 27 80 206 281 278 276 269 267 172 160 192 212 215 221 223 223 222 221 223 226
170 169 168 166 170 170 182 187 196 203 213 222 229 242 259 267 281 293 295 295 283 353 346 352 38 96 75 270 287 274 303 72 355 236 224 72 123 54 28 28 57 61 105 131 156 213 216 57 65 42 57 270 89 78 45 37 3 90 58 294 321 150 279 298 1 163 162 276 94 87 293 244 270 283 299 311 147 156 191 225 244 242 236 230 228 228 228 226
172 172 169 172 170 174 169 183 195 203 208 216 228 246 261 269 272 285 289 277 276 283 318 39 297 132 108 340 206 316 17 123 205 239 270 108 110 141 184 129 23 3 33 350 51 344 65 87 78 177 118 23 61 89 75 46 329 3 120 263 264 104 226 349 276 198 167 134 340 172 217 321 306 266 291 313 123 153 188 229 235 238 242 240 233 229 229 233
177 175 177 174 172 166 168 187 196 201 204 209 231 256 265 262 273 283 278 275 299 109 141 133 137 196 146 275 324 105 215 224 300 333 1 75 116 164 98 50 38 11 16 10 11 49 354 63 287 47 48 132 162 96 80 22 333 295 12 197 212 163 205 250 297 276 100 109 219 287 216 239 248 279 298 304 238 183 204 235 238 236 235 234 232 229 225 222
179 177 173 171 173 167 178 189 195 195 202 208 224 263 271 281 287 306 252 250 262 172 227 219 143 97 272 25 164 217 157 117 112 204 120 270 99 53 96 82 31 72 48 25 348 73 335 54 41 180 8 3 52 77 109 204 191 207 212 234 301 315 171 200 155 246 139 37 180 300 241 266 269 279 285 267 240 203 222 226 234 235 235 240 238 232 225 221
176 170 168 174 172 172 183 189 193 196 202 213 235 255 272 284 266 193 249 72 91 64 116 199 124 150 210 203 222 78 85 178 138 72 202 37 328 105 85 80 91 95 58 71 284 88 8 54 25 45 153 225 219 150 169 196 155 169 172 173 161 106 269 212 245 288 145 161 234 223 230 246 260 272 273 279 272 234 235 240 253 253 247 246 243 241 232 223
177 176 177 182 175 170 177 186 191 197 198 207 217 255 58 81 42 67 345 344 255 175 210 184 160 147 58 56 125 247 223 26 106 302 215 303 90 60 45 91 25 52 89 151 163 98 113 98 159 187 209 203 222 175 186 196 152 120 93 107 135 164 298 308 306 276 118 35 233 231 250 255 264 258 262 263 272 267 253 246 242 243 242 243 246 242 236 232
172 173 180 187 182 173 178 185 189 196 198 166 209 164 160 176 117 236 240 265 221 267 67 52 154 161 184 147 142 144 118 351 64 179 202 286 114 102 192 64 39 86 286 184 138 287 67 92 250 213 199 190 209 205 151 88 64 123 110 72 321 53 262 259 238 308 339 141 292 272 280 267 252 259 260 264 278 265 251 248 248 245 238 239 239 245 239 238
165 169 169 182 180 179 181 186 188 185 167 155 217 199 285 194 177 206 121 168 271 172 130 162 69 51 31 97 203 157 76 95 36 318 290 137 120 123 249 102 136 171 252 96 48 30 57 176 239 224 210 174 207 166 118 129 102 49 133 141 51 296 211 313 2 8 303 71 261 309 310 282 273 255 262 249 244 250 246 233 243 240 250 249 244 243 249 260
165 168 170 167 169 175 179 184 183 181 142 176 206 221 201 223 208 207 119 109 162 286 146 115 85 120 20 325 272 107 113 144 178 235 224 98 94 180 148 109 153 181 83 125 136 101 69 291 242 240 161 122 44 86 92 67 67 106 72 73 203 247 57 288 297 359 290 174 284 333 323 287 288 264 248 249 240 253 258 248 249 229 239 243 242 236 241 250
169 167 172 171 173 180 180 172 167 140 225 211 266 204 195 188 126 117 73 150 183 253 161 214 147 155 182 147 208 129 139 213 108 202 264 122 150 186 120 153 165 119 184 164 147 150 188 230 261 154 138 131 135 75 91 90 194 336 127 130 199 260 234 168 249 285 316 339 27 325 305 297 287 304 313 293 270 250 262 267 265 258 237 247 267 277 227 237
169 171 170 173 181 177 174 159 152 226 177 232 258 241 196 175 129 160 98 6 15 325 11 327 122 222 187 26 99 142 229 61 311 175 179 150 163 92 213 190 108 195 180 189 128 138 274 272 84 129 80 81 106 95 157 125 270 328 241 179 193 177 142 44 6 46 14 343 322 76 347 305 288 281 255 270 345 288 270 239 257 252 254 254 256 251 251 247
168 170 167 171 179 173 164 171 241 188 146 193 212 186 162 142 115 155 99 85 246 246 45 211 127 227 130 188 80 189 77 164 215 236 131 205 164 143 114 177 132 204 198 157 173 182 198 337 121 164 139 102 101 142 230 125 172 95 264 199 192 142 103 84 27 62 329 232 286 87 140 275 317 291 279 280 262 258 297 272 256 261 257 251 242 248 248 238
174 168 168 171 177 165 156 240 177 132 128 249 219 173 164 133 98 85 71 9 335 197 158 268 110 241 50 195 143 113 133 233 90 51 91 335 157 337 141 221 80 23 165 145 52 246 81 73 74 66 90 112 111 141 239 143 126 219 253 204 110 88 88 124 100 114 229 243 296 270 160 235 295 269 239 247 254 267 283 272 265 257 254 250 245 245 243 237
174 173 168 177 181 177 230 173 128 172 201 217 199 199 141 151 83 74 78 98 266 139 149 236 222 337 52 186 157 151 215 151 99 240 66 288 108 3 101 198 161 184 199 94 189 266 154 167 137 133 104 118 178 202 213 138 130 213 298 143 104 123 135 108 87 147 225 26 286 328 205 297 243 267 285 246 266 270 256 253 256 263 263 254 247 247 248 230
177 174 173 185 188 198 264 261 170 164 218 217 190 182 123 89 110 106 124 142 242 88 330 114 272 111 85 112 95 88 105 352 146 227 312 51 30 143 143 218 165 192 162 146 191 242 352 167 205 154 146 194 227 273 259 158 108 253 194 74 76 68 64 92 92 56 333 41 267 203 192 214 275 225 224 26 208 257 253 245 248 252 251 252 250 246 241 211
181 177 172 186 190 240 289 298 51 237 183 161 147 96 76 81 92 143 109 237 138 223 109 219 145 187 143 150 159 207 117 349 55 108 56 150 306 26 70 168 117 124 205 29 81 194 256 322 170 103 185 188 143 63 96 131 138 128 70 62 31 36 30 12 66 84 43 284 256 195 205 155 289 254 187 153 209 200 226 275 282 272 282 269 250 188 154 151
181 179 174 174 179 206 190 285 243 205 177 131 103 90 85 40 128 111 180 225 56 136 59 147 169 122 149 163 167 253 80 111 96 137 116 49 27 41 68 34 37 50 44 31 60 330 3 356 121 285 86 119 96 70 4 54 94 111 85 114 52 346 10 28 348 35 126 264 268 235 199 170 238 288 281 244 265 231 182 195 232 253 272 223 191 220 188 164
187 175 174 172 204 158 176 223 198 164 138 111 98 98 98 89 326 174 203 87 149 201 165 183 244 158 176 156 123 162 149 72 175 155 152 169 155 158 213 166 152 90 228 193 224 352 312 231 240 21 240 127 101 85 345 13 2 78 92 67 120 255 32 313 20 276 205 225 250 303 235 8 250 229 267 278 283 273 215 194 198 193 178 213 242 228 209 189
42 184 169 186 152 215 255 260 152 155 117 100 88 70 105 110 196 218 249 175 253 137 236 138 166 163 151 118 172 141 103 155 199 181 112 168 152 218 223 180 194 152 191 203 151 121 265 290 38 224 9 251 141 135 179 90 264 120 141 143 113 152 149 241 262 238 299 294 263 302 80 254 273 292 226 231 244 227 229 238 206 182 189 203 218 220 215 206
124 140 176 182 190 189 140 180 176 135 121 78 98 88 66 179 229 218 218 227 184 44 114 124 116 113 153 173 195 155 110 311 149 193 140 147 152 191 252 261 191 258 84 128 175 178 186 311 256 130 262 176 189 177 175 169 171 203 120 155 180 150 165 209 184 202 224 221 286 281 95 233 96 248 285 244 250 293 288 266 243 242 245 224 222 207 205 199
137 74 143 179 237 194 155 182 157 170 115 112 117 164 173 207 218 190 209 196 306 56 60 124 125 143 197 26 166 187 139 185 185 132 167 146 205 189 185 211 219 132 149 132 244 89 211 213 253 194 245 161 185 208 131 93 76 235 168 79 113 220 118 178 202 161 236 333 337 211 213 187 176 264 268 280 309 303 300 310 297 279 293 315 287 218 213 209
80 296 69 214 193 182 153 125 82 70 102 111 130 187 202 191 201 161 217 139 165 114 117 89 84 123 173 173 331 189 275 120 213 125 234 206 202 189 198 188 190 193 168 191 161 174 84 251 305 170 39 179 188 143 195 153 187 221 113 209 210 176 119 103 0 305 97 36 258 153 294 269 301 280 245 257 253 262 294 313 313 276 265 287 273 257 221 213
147 114 160 229 243 146 131 116 97 75 66 121 162 201 208 225 189 150 145 175 182 134 134 130 230 141 173 199 183 189 224 76 184 138 214 155 301 199 209 238 187 191 205 166 247 186 153 230 322 127 213 274 160 184 100 7 147 103 193 224 111 101 122 146 214 347 113 207 266 120 235 282 52 285 324 243 255 276 295 264 246 260 289 270 252 270 244 225
339 193 238 213 192 139 129 128 118 132 121 150 200 214 54 202 312 83 352 59 113 148 144 146 220 116 191 160 212 178 220 158 198 180 203 179 243 195 180 195 199 194 206 203 172 246 128 258 272 1 202 285 341 122 307 342 19 154 192 209 133 251 249 300 93 245 208 270 272 272 231 263 202 243 289 339 270 268 269 256 256 262 255 243 258 267 272 238
228 224 246 213 156 146 133 131 128 139 114 166 208 209 230 225 38 71 346 220 184 135 162 224 127 236 143 195 157 119 159 174 178 193 153 221 204 205 186 179 216 200 199 168 198 232 108 183 284 344 117 298 26 127 200 206 320 149 73 116 135 99 158 144 200 170 128 241 114 274 114 261 156 225 171 229 238 248 246 243 236 233 234 236 241 249 264 258
99 63 255 46 150 138 133 120 107 123 117 178 202 227 31 310 269 86 33 53 17 80 219 186 190 154 177 200 157 162 215 167 165 201 180 202 200 282 185 191 187 198 188 183 199 130 238 165 237 262 309 101 186 202 210 162 161 195 132 205 215 20 235 117 178 156 175 179 196 260 291 257 245 192 165 205 219 228 217 227 228 233 235 233 230 241 251 257
184 128 230 131 137 129 122 121 149 159 130 302 6 258 23 220 345 319 69 47 64 3 131 64 183 170 167 147 210 184 158 164 180 182 188 226 182 241 207 183 156 154 138 170 195 185 198 189 188 130 37 236 236 231 197 181 185 176 176 196 186 141 152 167 252 22 126 147 230 166 259 280 242 199 197 208 228 221 219 208 223 233 231 223 227 241 239 258
119 124 222 147 142 140 137 150 119 122 132 177 202 157 223 249 332 301 44 18 97 313 337 80 286 157 166 184 163 177 144 179 188 181 221 198 217 211 254 174 176 149 151 174 195 205 173 148 111 182 202 208 220 275 260 193 275 255 173 224 190 188 157 165 208 247 15 238 156 198 274 264 116 211 191 220 207 217 206 184 211 227 246 256 237 240 249 224
85 212 354 154 158 153 133 181 114 132 154 222 78 83 159 148 221 269 232 179 25 174 289 61 233 110 0 140 180 156 163 194 178 202 196 214 232 204 228 182 157 165 157 194 188 237 96 111 114 287 351 327 338 322 23 21 172 271 256 155 126 196 178 175 167 186 175 220 225 250 209 266 340 356 146 149 165 260 149 177 184 174 190 220 224 241 235 237
218 291 346 297 173 166 163 189 179 181 161 163 134 189 182 182 162 226 196 233 165 99 159 2 4 25 132 54 68 179 184 188 218 196 228 207 244 226 217 185 161 176 162 202 173 191 167 255 156 144 21 339 352 344 345 332 45 197 202 204 182 175 171 177 108 115 204 213 202 174 231 252 282 325 317 14 4 44 98 160 129 147 218 213 229 227 240 326
286 314 337 205 227 188 194 177 173 163 174 166 165 171 173 202 236 222 192 222 183 189 56 249 220 82 26 57 73 250 349 158 176 219 201 195 222 26 4 133 196 180 202 199 182 171 172 172 156 170 202 212 221 202 207 206 201 233 212 206 196 182 180 141 219 187 224 240 192 208 245 250 207 351 25 2 351 292 277 264 258 130 13 5 10 358 322 21
156 148 247 321 267 230 214 109 35 172 173 169 181 196 163 188 204 213 199 248 182 241 220 202 8 63 249 335 352 8 283 30 142 305 206 227 230 340 251 329 178 195 209 165 157 147 171 212 188 191 198 217 223 220 194 122 106 185 230 204 204 198 187 191 165 200 218 228 218 224 229 256 238 220 276 237 331 253 290 330 320 318 328 326 276 323 338 322
327 146 158 214 19 294 277 194 202 148 191 165 189 158 194 190 140 200 184 213 194 198 193 216 201 210 224 204 228 263 216 271 357 103 281 238 278 246 321 80 45 37 13 129 169 123 91 201 211 208 217 224 222 197 176 159 184 203 205 208 202 190 187 187 189 220 216 214 246 231 235 253 258 223 240 249 262 281 265 259 290 299 293 301 318 306 309 312
144 246 161 213 139 211 216 237 209 196 218 165 207 155 188 179 183 186 172 228 125 173 173 268 213 211 219 219 201 224 205 214 90 199 335 306 25 336 73 358 51 311 344 118 328 157 156 202 218 197 231 236 209 184 180 184 189 196 204 203 198 198 188 195 214 224 209 203 227 240 202 229 253 235 202 241 217 230 247 263 260 254 304 330 315 306 301 290
214 339 256 352 169 296 210 179 170 197 202 177 243 163 182 185 198 198 157 174 183 218 188 216 208 210 216 212 201 220 207 158 256 207 175 282 197 155 152 6 263 7 46 50 38 157 135 235 211 191 220 238 229 215 186 191 208 215 217 212 205 193 198 205 215 220 217 216 230 243 238 233 245 249 174 222 222 195 216 228 269 301 269 264 286 295 284 276
197 142 291 336 144 151 318 63 168 172 212 191 216 203 201 194 206 184 175 155 184 216 192 218 214 200 209 208 201 213 217 212 215 182 200 127 280 104 230 188 166 352 31 65 351 318 148 272 123 111 212 239 238 188 168 153 132 237 275 212 209 214 217 213 215 223 225 236 238 246 255 262 253 201 168 241 262 330 300 287 274 269 275 267 250 250 254 253
289 94 65 90 350 250 188 232 180 177 192 197 218 215 202 203 210 179 202 179 186 181 182 214 221 195 203 204 205 222 227 214 223 218 178 158 199 223 132 275 117 71 10 31 32 328 94 244 48 78 201 249 236 140 174 96 106 203 261 255 234 212 213 218 225 221 213 221 228 236 254 254 256 123 254 251 197 255 272 264 264 267 265 264 252 254 254 247
258 282 62 6 297 232 154 199 191 160 212 204 208 208 193 209 186 143 247 239 218 204 190 206 212 180 202 194 210 217 220 212 219 221 204 184 194 182 180 188 156 130 177 72 337 78 111 101 106 115 203 240 240 116 136 123 88 268 243 236 232 221 164 198 230 232 227 222 227 225 236 244 257 224 229 279 276 253 258 268 263 250 231 227 240 253 257 266